Home > Weather > Aurillac > Past weeks

Flag for France Weather for the Past 2 Weeks in Aurillac, France

Now
47 °F

Overcast.


Feels Like: 40 °F
Forecast: 38 / 46 °F
Wind: 15 mph from Southwest

Location: Aurillac

Current Time: Feb 8, 2016 at 8:32:38 PM

Latest Report: Feb 8, 2016 at 7:00 PM


Visibility: 12 mi

Pressure: 30.10 "Hg (27.89 "Hg at 627m altitude)

Humidity: 90%

Dew point: 44 °F

Location of AurillacLocation

Historic Weather in Aurillac — Graph

°F

Aurillac Temperature Yesterday

Maximum temperature yesterday: 45 °F (at 5:00 AM)
Minimum temperature yesterday: 34 °F (at 8:00 AM)
Average temperature yesterday: 39 °F

High & Low Weather Summary for the Past Weeks

 TemperatureHumidityPressure
High63 °F (Jan 27, 3:00 PM)96% (Jan 29, 10:00 AM)30.71 "Hg (Jan 29, 10:00 AM)
Low29 °F (Feb 4, 8:00 AM)43% (Jan 27, 3:00 PM)29.68 "Hg (Feb 7, 5:00 AM)
Average45 °F82%30.34 "Hg
* Reported Jan 24 7:00 PM — Feb 8 7:00 PM, Aurillac, Weather by CustomWeather, © 2016

Note: Actual official high and low records may vary slightly from our data, if they occured in-between our weather recording intervals... More about our weather records

Advertising

Aurillac Weather History for the Previous 24 Hours

 ConditionsComfort  
Time TempWeatherWind HumidityBarometerVisibility
7:00 PM
Mon, Feb 8
47 °FOvercast.15 mph90%30.10 "Hg12 mi
6:00 PM46 °FOvercast.9 mph90%30.08 "Hg12 mi
5:00 PM46 °FHeavy rain. Overcast.13 mph90%30.05 "Hg2 mi
4:00 PM46 °FLight rain. Overcast.16 mph87%30.04 "Hg6 mi
3:00 PM47 °FOvercast.17 mph89%30.03 "Hg12 mi
2:00 PM46 °FLight rain. Overcast.12 mph89%30.05 "Hg6 mi
1:00 PM45 °FLight rain. Overcast.10 mph89%30.06 "Hg12 mi
12:00 PM44 °FLight rain. Overcast.15 mph88%30.07 "Hg12 mi
11:00 AM45 °FOvercast.17 mph79%30.06 "Hg12 mi
10:00 AM44 °FOvercast.13 mph81%30.05 "Hg12 mi
9:00 AM42 °FDrizzle. Low clouds.12 mph87%30.06 "Hg8 mi
8:00 AM40 °FOvercast.8 mph88%30.06 "Hg12 mi
7:00 AM40 °FDrizzle. Overcast.7 mph92%30.06 "Hg5 mi
6:00 AM40 °FLight rain. Overcast.8 mph92%30.05 "Hg5 mi
5:00 AM41 °FDrizzle. Overcast.9 mph92%30.05 "Hg5 mi
9:00 PM
Sun, Feb 7
39 °FOvercast.3 mph88%30.08 "Hg11 mi
8:00 PM38 °FOvercast.3 mph88%30.08 "Hg13 mi
Weather by CustomWeather, © 2016

See weather overviewHow to use our weather pages